TAM8194 SBGR-KMIA

Flight info

Callsign TAM8194
Flight time 7h 43m
Altitude 32000
Route GERTU UL304 OPNUS UM417 VUDIR/N0495F340 UM417 KONKI UL304 BRUTI UM417 ISUNU UM409 VUMPI UL795 ISODO/N0487F360 UL795 ALTIB UM779 ZEUSS VIICE2
Aircraft B77W/H-SDE1E2E3FGHIJ2J3J4J5M1RWXY/LB1D1

Departure

Time 2026-05-04 13:18
Airport São Paulo/Guarulhos–Governor André Franco Montoro International Airport (SBGR)

Arrival

Time 2026-05-04 21:01
Airport Miami International Airport (KMIA)
Time Latitude Longitude Altitude Speed Heading
2026-05-04 13:06 -23.42686 -46.47168 2474 ft 0 kts 164°
2026-05-04 13:09 -23.42690 -46.47166 2473 ft 1 kts 164°
2026-05-04 13:10 -23.42701 -46.47163 2476 ft 2 kts 164°
2026-05-04 13:10 -23.42726 -46.47155 2477 ft 6 kts 164°
2026-05-04 13:10 -23.42779 -46.47138 2474 ft 9 kts 164°
2026-05-04 13:10 -23.42838 -46.47120 2478 ft 9 kts 163°
2026-05-04 13:11 -23.42899 -46.47111 2478 ft 9 kts 193°
2026-05-04 13:11 -23.42936 -46.47160 2478 ft 9 kts 248°
2026-05-04 13:11 -23.42955 -46.47226 2476 ft 9 kts 253°
2026-05-04 13:11 -23.42972 -46.47290 2474 ft 9 kts 255°
2026-05-04 13:12 -23.42989 -46.47355 2476 ft 9 kts 254°
2026-05-04 13:12 -23.43007 -46.47420 2476 ft 9 kts 253°
2026-05-04 13:12 -23.43024 -46.47484 2478 ft 9 kts 253°
2026-05-04 13:12 -23.43043 -46.47550 2474 ft 9 kts 253°
2026-05-04 13:13 -23.43060 -46.47614 2475 ft 9 kts 253°
2026-05-04 13:13 -23.43078 -46.47679 2476 ft 9 kts 253°
2026-05-04 13:13 -23.43096 -46.47744 2477 ft 9 kts 253°
2026-05-04 13:13 -23.43113 -46.47808 2475 ft 9 kts 253°
2026-05-04 13:14 -23.43131 -46.47874 2478 ft 9 kts 253°
2026-05-04 13:14 -23.43148 -46.47938 2473 ft 9 kts 253°
2026-05-04 13:14 -23.43166 -46.48003 2476 ft 9 kts 253°
2026-05-04 13:14 -23.43183 -46.48068 2476 ft 9 kts 253°
2026-05-04 13:15 -23.43200 -46.48133 2476 ft 9 kts 253°
2026-05-04 13:15 -23.43218 -46.48197 2477 ft 9 kts 253°
2026-05-04 13:15 -23.43235 -46.48262 2477 ft 9 kts 253°
2026-05-04 13:15 -23.43254 -46.48327 2476 ft 9 kts 248°
2026-05-04 13:16 -23.43303 -46.48359 2478 ft 9 kts 179°
2026-05-04 13:16 -23.43364 -46.48344 2479 ft 9 kts 165°
2026-05-04 13:16 -23.43416 -46.48316 2478 ft 5 kts 118°
2026-05-04 13:16 -23.43414 -46.48280 2476 ft 5 kts 74°
2026-05-04 13:17 -23.43369 -46.48114 2478 ft 53 kts 73°
2026-05-04 13:17 -23.43192 -46.47464 2475 ft 124 kts 73°
2026-05-04 13:17 -23.42890 -46.46348 2481 ft 179 kts 72°
2026-05-04 13:17 -23.42540 -46.45013 2957 ft 182 kts 72°
2026-05-04 13:18 -23.42152 -46.43677 3539 ft 190 kts 72°
2026-05-04 13:18 -23.41736 -46.42268 3813 ft 201 kts 72°
2026-05-04 13:18 -23.41286 -46.40760 3962 ft 218 kts 71°
2026-05-04 13:18 -23.40801 -46.39117 4140 ft 239 kts 71°
2026-05-04 13:19 -23.40275 -46.37337 4506 ft 253 kts 70°
2026-05-04 13:19 -23.39897 -46.36113 4704 ft 263 kts 64°
2026-05-04 13:19 -23.38616 -46.33807 5383 ft 271 kts 54°
2026-05-04 13:19 -23.37571 -46.32072 6003 ft 277 kts 54°
2026-05-04 13:20 -23.36529 -46.30298 6681 ft 279 kts 55°
2026-05-04 13:20 -23.35485 -46.28502 7317 ft 283 kts 55°
2026-05-04 13:20 -23.34426 -46.26678 7915 ft 288 kts 56°
2026-05-04 13:20 -23.33351 -46.24822 8547 ft 292 kts 56°
2026-05-04 13:21 -23.32260 -46.22940 9143 ft 296 kts 56°
2026-05-04 13:21 -23.31154 -46.21034 9770 ft 300 kts 56°
2026-05-04 13:21 -23.30033 -46.19101 10360 ft 304 kts 57°
2026-05-04 13:21 -23.28898 -46.17143 10901 ft 308 kts 57°
2026-05-04 13:22 -23.27746 -46.15158 11439 ft 313 kts 57°
2026-05-04 13:22 -23.26571 -46.13136 12020 ft 318 kts 57°
2026-05-04 13:22 -23.25383 -46.11088 12634 ft 322 kts 57°
2026-05-04 13:22 -23.24179 -46.09017 13263 ft 326 kts 58°
2026-05-04 13:23 -23.22957 -46.06916 13881 ft 331 kts 58°
2026-05-04 13:23 -23.21661 -46.04844 14392 ft 333 kts 46°
2026-05-04 13:23 -23.20490 -46.03758 14632 ft 336 kts 27°
2026-05-04 13:23 -23.18339 -46.02797 15104 ft 335 kts 15°
2026-05-04 13:24 -23.16117 -46.01996 15670 ft 336 kts 12°
2026-05-04 13:24 -23.13824 -46.01735 16136 ft 330 kts 346°
2026-05-04 13:24 -23.11693 -46.02508 16717 ft 320 kts 324°
2026-05-04 13:25 -23.08512 -46.05711 17950 ft 315 kts 305°
2026-05-04 13:25 -23.07085 -46.07603 18114 ft 334 kts 304°
2026-05-04 13:25 -23.05583 -46.09619 18264 ft 352 kts 305°
2026-05-04 13:25 -23.04016 -46.11713 18410 ft 370 kts 305°
2026-05-04 13:26 -23.02343 -46.13926 18557 ft 388 kts 306°
2026-05-04 13:26 -23.00595 -46.16216 18813 ft 400 kts 306°
2026-05-04 13:26 -22.98792 -46.18563 19173 ft 408 kts 306°
2026-05-04 13:26 -22.96962 -46.20939 19625 ft 413 kts 306°
2026-05-04 13:27 -22.95117 -46.23331 20208 ft 414 kts 306°
2026-05-04 13:27 -22.93266 -46.25733 20820 ft 415 kts 306°
2026-05-04 13:27 -22.91426 -46.28121 21305 ft 420 kts 306°
2026-05-04 13:27 -22.89612 -46.30587 21756 ft 421 kts 300°
2026-05-04 13:28 -22.88206 -46.33355 22185 ft 420 kts 291°
2026-05-04 13:28 -22.86979 -46.36244 22664 ft 423 kts 291°
2026-05-04 13:28 -22.85757 -46.39162 23170 ft 427 kts 291°
2026-05-04 13:28 -22.84511 -46.42100 23602 ft 431 kts 291°
2026-05-04 13:29 -22.83233 -46.45051 24026 ft 434 kts 291°
2026-05-04 13:29 -22.81930 -46.48013 24470 ft 436 kts 291°
2026-05-04 13:29 -22.80613 -46.50977 24924 ft 437 kts 292°
2026-05-04 13:29 -22.79288 -46.53941 25413 ft 438 kts 292°
2026-05-04 13:30 -22.77956 -46.56917 25856 ft 439 kts 291°
2026-05-04 13:30 -22.76619 -46.59905 26216 ft 443 kts 291°
2026-05-04 13:30 -22.75270 -46.62919 26598 ft 446 kts 291°
2026-05-04 13:30 -22.73916 -46.65942 27006 ft 447 kts 291°
2026-05-04 13:31 -22.72574 -46.68937 27424 ft 448 kts 291°
2026-05-04 13:31 -22.71209 -46.71983 27824 ft 450 kts 291°
2026-05-04 13:31 -22.69855 -46.75004 28190 ft 452 kts 291°
2026-05-04 13:31 -22.68461 -46.78112 28556 ft 454 kts 291°
2026-05-04 13:32 -22.67096 -46.81152 28903 ft 455 kts 291°
2026-05-04 13:32 -22.65708 -46.84234 29323 ft 456 kts 291°
2026-05-04 13:32 -22.64315 -46.87317 29709 ft 456 kts 291°
2026-05-04 13:32 -22.62923 -46.90397 30175 ft 454 kts 291°
2026-05-04 13:33 -22.61538 -46.93461 30609 ft 452 kts 291°
2026-05-04 13:33 -22.60166 -46.96503 31036 ft 449 kts 291°
2026-05-04 13:33 -22.58798 -46.99540 31431 ft 448 kts 291°
2026-05-04 13:33 -22.57438 -47.02560 31782 ft 447 kts 291°
2026-05-04 13:34 -22.56078 -47.05575 32117 ft 446 kts 291°
2026-05-04 13:34 -22.54778 -47.08635 32168 ft 446 kts 286°
2026-05-04 13:34 -22.53122 -47.15025 32174 ft 438 kts 280°
2026-05-04 13:35 -22.50909 -47.24580 32201 ft 438 kts 281°
2026-05-04 13:36 -22.49338 -47.30947 32189 ft 439 kts 281°
2026-05-04 13:36 -22.47740 -47.37320 32198 ft 439 kts 281°
2026-05-04 13:37 -22.46140 -47.43696 32199 ft 440 kts 281°
2026-05-04 13:37 -22.44538 -47.50083 32202 ft 441 kts 281°
2026-05-04 13:38 -22.42083 -47.56139 32207 ft 451 kts 301°
2026-05-04 13:38 -22.39937 -47.58654 32205 ft 462 kts 314°
2026-05-04 13:38 -22.37357 -47.60689 32207 ft 467 kts 319°
2026-05-04 13:39 -22.31942 -47.64611 32195 ft 470 kts 319°
2026-05-04 13:39 -22.26525 -47.68560 32198 ft 470 kts 319°
2026-05-04 13:40 -22.21130 -47.72568 32182 ft 470 kts 318°
2026-05-04 13:40 -22.15753 -47.76590 32188 ft 470 kts 318°
2026-05-04 13:41 -22.10386 -47.80603 32183 ft 470 kts 318°
2026-05-04 13:41 -22.05009 -47.84617 32152 ft 470 kts 318°
2026-05-04 13:42 -21.96952 -47.90621 32168 ft 469 kts 318°
2026-05-04 13:42 -21.91584 -47.94617 32171 ft 469 kts 318°
2026-05-04 13:43 -21.86224 -47.98605 32170 ft 468 kts 318°
2026-05-04 13:43 -21.80856 -48.02594 32166 ft 469 kts 318°
2026-05-04 13:44 -21.75508 -48.06603 32159 ft 468 kts 317°
2026-05-04 13:44 -21.70196 -48.10666 32168 ft 469 kts 317°
2026-05-04 13:45 -21.64883 -48.14732 32147 ft 469 kts 317°
2026-05-04 13:45 -21.59564 -48.18789 32161 ft 469 kts 317°
2026-05-04 13:46 -21.54233 -48.22845 32163 ft 469 kts 317°
2026-05-04 13:46 -21.48903 -48.26896 32160 ft 470 kts 317°
2026-05-04 13:47 -21.43562 -48.30951 32154 ft 470 kts 317°
2026-05-04 13:47 -21.38225 -48.35000 32156 ft 470 kts 317°
2026-05-04 13:48 -21.32887 -48.39047 32155 ft 470 kts 317°
2026-05-04 13:48 -21.27546 -48.43092 32153 ft 470 kts 317°
2026-05-04 13:49 -21.22208 -48.47131 32158 ft 470 kts 317°
2026-05-04 13:49 -21.16868 -48.51169 32132 ft 470 kts 317°
2026-05-04 13:50 -21.11520 -48.55208 32154 ft 470 kts 317°
2026-05-04 13:50 -21.06171 -48.59244 32133 ft 470 kts 317°
2026-05-04 13:51 -21.00819 -48.63280 32133 ft 471 kts 318°
2026-05-04 13:51 -20.95465 -48.67312 32147 ft 471 kts 318°
2026-05-04 13:52 -20.87409 -48.73375 32147 ft 472 kts 318°
2026-05-04 13:53 -20.82069 -48.77389 32124 ft 473 kts 318°
2026-05-04 13:53 -20.76688 -48.81431 32136 ft 473 kts 318°
2026-05-04 13:54 -20.68615 -48.87486 32133 ft 473 kts 318°
2026-05-04 13:55 -20.60531 -48.93542 32120 ft 473 kts 318°
2026-05-04 13:55 -20.52452 -48.99589 32129 ft 473 kts 318°
2026-05-04 13:56 -20.47067 -49.03615 32132 ft 473 kts 318°
2026-05-04 13:57 -20.38984 -49.09652 32123 ft 473 kts 319°
2026-05-04 13:58 -20.28181 -49.17709 32117 ft 474 kts 319°
2026-05-04 13:58 -20.20064 -49.23752 32105 ft 475 kts 319°
2026-05-04 13:59 -20.14645 -49.27783 32113 ft 475 kts 319°
2026-05-04 14:00 -20.06504 -49.33831 32104 ft 476 kts 319°
2026-05-04 14:00 -19.98360 -49.39874 32105 ft 476 kts 319°
2026-05-04 14:01 -19.92921 -49.43905 32113 ft 477 kts 319°
2026-05-04 14:02 -19.84760 -49.49949 32104 ft 477 kts 319°
2026-05-04 14:02 -19.79314 -49.53977 32106 ft 477 kts 319°
2026-05-04 14:03 -19.73866 -49.58003 32105 ft 477 kts 319°
2026-05-04 14:03 -19.68418 -49.62025 32103 ft 477 kts 319°
2026-05-04 14:04 -19.60248 -49.68052 32104 ft 477 kts 319°
2026-05-04 14:04 -19.54835 -49.72041 32096 ft 477 kts 319°
2026-05-04 14:05 -19.46627 -49.78083 32101 ft 477 kts 319°
2026-05-04 14:06 -19.41175 -49.82093 32096 ft 477 kts 319°
2026-05-04 14:06 -19.35714 -49.86107 32082 ft 478 kts 320°
2026-05-04 14:07 -19.30256 -49.90112 32084 ft 477 kts 320°
2026-05-04 14:07 -19.24795 -49.94115 32083 ft 478 kts 320°
2026-05-04 14:08 -19.19367 -49.98093 32087 ft 478 kts 320°
2026-05-04 14:08 -19.13899 -50.02098 32070 ft 478 kts 320°
2026-05-04 14:09 -19.05698 -50.08096 32084 ft 478 kts 320°
2026-05-04 14:10 -18.98381 -50.13444 32082 ft 478 kts 320°
2026-05-04 14:10 -18.92919 -50.17431 32064 ft 477 kts 320°
2026-05-04 14:11 -18.87494 -50.21388 32082 ft 477 kts 320°
2026-05-04 14:11 -18.79307 -50.27354 32081 ft 477 kts 320°
2026-05-04 14:12 -18.73844 -50.31332 32083 ft 476 kts 320°
2026-05-04 14:13 -18.65670 -50.37277 32083 ft 476 kts 320°
2026-05-04 14:13 -18.60219 -50.41237 32083 ft 476 kts 320°
2026-05-04 14:14 -18.54769 -50.45195 32084 ft 476 kts 320°
2026-05-04 14:14 -18.46580 -50.51135 32070 ft 476 kts 320°
2026-05-04 14:15 -18.35652 -50.59053 32093 ft 478 kts 320°
2026-05-04 14:16 -18.27432 -50.65004 32094 ft 478 kts 321°
2026-05-04 14:17 -18.19192 -50.70962 32089 ft 480 kts 321°
2026-05-04 14:18 -18.10934 -50.76927 32092 ft 480 kts 321°
2026-05-04 14:19 -17.99916 -50.84872 32084 ft 481 kts 321°
2026-05-04 14:19 -17.94397 -50.88849 32099 ft 481 kts 321°
2026-05-04 14:20 -17.88878 -50.92823 32096 ft 481 kts 321°
2026-05-04 14:20 -17.83348 -50.96793 32098 ft 482 kts 321°
2026-05-04 14:21 -17.75031 -51.02747 32094 ft 482 kts 321°
2026-05-04 14:21 -17.69523 -51.06688 32095 ft 483 kts 321°
2026-05-04 14:22 -17.63976 -51.10656 32092 ft 483 kts 321°
2026-05-04 14:22 -17.58424 -51.14625 32091 ft 483 kts 321°
2026-05-04 14:23 -17.50081 -51.20583 32093 ft 484 kts 321°
2026-05-04 14:24 -17.44524 -51.24549 32091 ft 484 kts 321°
2026-05-04 14:24 -17.38963 -51.28513 32089 ft 484 kts 321°
2026-05-04 14:25 -17.33401 -51.32475 32085 ft 483 kts 321°
2026-05-04 14:25 -17.25059 -51.38412 32096 ft 484 kts 321°
2026-05-04 14:26 -17.19494 -51.42371 32081 ft 484 kts 321°
2026-05-04 14:26 -17.13960 -51.46303 32089 ft 484 kts 321°
2026-05-04 14:27 -17.08387 -51.50264 32073 ft 485 kts 321°
2026-05-04 14:27 -17.02805 -51.54226 32076 ft 485 kts 321°
2026-05-04 14:28 -16.97220 -51.58187 32074 ft 485 kts 321°
2026-05-04 14:28 -16.91639 -51.62142 32077 ft 485 kts 321°
2026-05-04 14:29 -16.80464 -51.70057 32069 ft 486 kts 321°
2026-05-04 14:30 -16.74875 -51.74021 32070 ft 486 kts 321°
2026-05-04 14:31 -16.66487 -51.79974 32059 ft 486 kts 321°
2026-05-04 14:32 -16.55293 -51.87907 32052 ft 487 kts 322°
2026-05-04 14:32 -16.49693 -51.91869 32053 ft 487 kts 322°
2026-05-04 14:33 -16.44086 -51.95835 32066 ft 487 kts 322°
2026-05-04 14:33 -16.38477 -51.99800 32039 ft 487 kts 322°
2026-05-04 14:34 -16.32862 -52.03767 32055 ft 487 kts 322°
2026-05-04 14:34 -16.27233 -52.07711 32037 ft 488 kts 322°
2026-05-04 14:35 -16.21531 -52.11557 32046 ft 489 kts 323°
2026-05-04 14:35 -16.15853 -52.15354 32052 ft 488 kts 323°
2026-05-04 14:36 -16.10142 -52.19188 32057 ft 488 kts 323°
2026-05-04 14:36 -16.04437 -52.23031 32059 ft 489 kts 323°
2026-05-04 14:37 -15.98726 -52.26878 32067 ft 489 kts 323°
2026-05-04 14:37 -15.93006 -52.30726 32066 ft 490 kts 323°
2026-05-04 14:38 -15.87290 -52.34569 32076 ft 490 kts 323°
2026-05-04 14:38 -15.81566 -52.38414 32075 ft 490 kts 323°
2026-05-04 14:39 -15.75842 -52.42257 32076 ft 490 kts 323°
2026-05-04 14:39 -15.70119 -52.46097 32066 ft 490 kts 323°
2026-05-04 14:40 -15.61524 -52.51858 32041 ft 490 kts 323°
2026-05-04 14:40 -15.55793 -52.55698 32048 ft 491 kts 323°
2026-05-04 14:41 -15.50054 -52.59538 32043 ft 491 kts 323°
2026-05-04 14:42 -15.38565 -52.67221 32033 ft 492 kts 323°
2026-05-04 14:42 -15.32807 -52.71067 32039 ft 493 kts 323°
2026-05-04 14:43 -15.27043 -52.74915 32035 ft 494 kts 323°
2026-05-04 14:43 -15.21269 -52.78767 32039 ft 494 kts 323°
2026-05-04 14:44 -15.15488 -52.82620 32033 ft 494 kts 323°
2026-05-04 14:44 -15.09703 -52.86474 32024 ft 494 kts 323°
2026-05-04 14:45 -15.03926 -52.90321 32026 ft 494 kts 324°
2026-05-04 14:45 -14.98146 -52.94166 32023 ft 493 kts 323°
2026-05-04 14:46 -14.92377 -52.98003 32031 ft 493 kts 323°
2026-05-04 14:46 -14.86607 -53.01838 32021 ft 493 kts 324°
2026-05-04 14:47 -14.80865 -53.05651 32033 ft 494 kts 324°
2026-05-04 14:47 -14.75075 -53.09494 32032 ft 495 kts 324°
2026-05-04 14:48 -14.69228 -53.13268 32044 ft 499 kts 327°
2026-05-04 14:48 -14.66204 -53.15051 32242 ft 501 kts 327°
2026-05-04 14:48 -14.63168 -53.16808 32608 ft 499 kts 327°
2026-05-04 14:49 -14.60137 -53.18552 32959 ft 498 kts 327°
2026-05-04 14:49 -14.57116 -53.20295 33282 ft 497 kts 327°
2026-05-04 14:49 -14.54098 -53.22043 33591 ft 497 kts 327°
2026-05-04 14:49 -14.51092 -53.23791 33898 ft 496 kts 327°
2026-05-04 14:50 -14.45071 -53.27302 34025 ft 497 kts 327°
2026-05-04 14:50 -14.39076 -53.30797 34016 ft 494 kts 327°
2026-05-04 14:51 -14.33105 -53.34276 34022 ft 492 kts 327°
2026-05-04 14:51 -14.27148 -53.37744 34027 ft 492 kts 327°
2026-05-04 14:52 -14.21183 -53.41215 34030 ft 493 kts 327°
2026-05-04 14:52 -14.15201 -53.44693 34027 ft 494 kts 327°
2026-05-04 14:53 -14.09202 -53.48179 34022 ft 496 kts 327°
2026-05-04 14:53 -14.03180 -53.51675 34028 ft 497 kts 327°
2026-05-04 14:54 -13.97147 -53.55178 34025 ft 498 kts 327°
2026-05-04 14:54 -13.91098 -53.58685 34022 ft 499 kts 327°
2026-05-04 14:55 -13.85052 -53.62195 34015 ft 499 kts 327°
2026-05-04 14:55 -13.79048 -53.65679 34023 ft 498 kts 328°
2026-05-04 14:56 -13.73014 -53.69180 34012 ft 497 kts 328°
2026-05-04 14:56 -13.66993 -53.72671 34012 ft 497 kts 328°
2026-05-04 14:57 -13.60978 -53.76156 34009 ft 496 kts 328°
2026-05-04 14:57 -13.55945 -53.79072 34015 ft 495 kts 328°
2026-05-04 14:58 -13.49982 -53.82524 34003 ft 495 kts 328°
2026-05-04 14:58 -13.43989 -53.85990 34005 ft 494 kts 328°
2026-05-04 14:59 -13.37999 -53.89454 34009 ft 494 kts 328°
2026-05-04 15:00 -13.29013 -53.94646 34001 ft 494 kts 329°
2026-05-04 15:00 -13.23018 -53.98107 34007 ft 494 kts 329°
2026-05-04 15:01 -13.14012 -54.03303 34001 ft 495 kts 329°
2026-05-04 15:01 -13.08015 -54.06761 34000 ft 495 kts 329°
2026-05-04 15:02 -13.02005 -54.10225 33999 ft 495 kts 329°
2026-05-04 15:02 -12.95997 -54.13685 33998 ft 495 kts 329°
2026-05-04 15:03 -12.89972 -54.17129 34005 ft 496 kts 329°
2026-05-04 15:03 -12.83939 -54.20560 33998 ft 496 kts 329°
2026-05-04 15:04 -12.77911 -54.23991 33998 ft 496 kts 330°
2026-05-04 15:04 -12.71885 -54.27423 34003 ft 495 kts 330°
2026-05-04 15:05 -12.65868 -54.30848 34001 ft 495 kts 330°
2026-05-04 15:05 -12.59847 -54.34287 34002 ft 495 kts 329°
2026-05-04 15:06 -12.53843 -54.37735 34004 ft 495 kts 329°
2026-05-04 15:07 -12.44872 -54.42881 34005 ft 495 kts 329°
2026-05-04 15:07 -12.38862 -54.46324 33997 ft 495 kts 329°
2026-05-04 15:08 -12.32853 -54.49765 33999 ft 495 kts 329°
2026-05-04 15:08 -12.26839 -54.53205 33997 ft 495 kts 329°
2026-05-04 15:09 -12.20828 -54.56639 34002 ft 495 kts 330°
2026-05-04 15:09 -12.14811 -54.60074 33997 ft 495 kts 330°
2026-05-04 15:10 -12.05785 -54.65225 33999 ft 496 kts 330°
2026-05-04 15:11 -11.96756 -54.70375 34001 ft 496 kts 330°
2026-05-04 15:11 -11.90728 -54.73812 33998 ft 497 kts 330°
2026-05-04 15:12 -11.84690 -54.77252 34005 ft 497 kts 330°
2026-05-04 15:12 -11.78660 -54.80685 33996 ft 496 kts 330°
2026-05-04 15:13 -11.72633 -54.84115 34001 ft 496 kts 330°
2026-05-04 15:13 -11.66616 -54.87538 33992 ft 496 kts 330°
2026-05-04 15:14 -11.60591 -54.90964 33997 ft 496 kts 330°
2026-05-04 15:14 -11.54568 -54.94387 33995 ft 496 kts 330°
2026-05-04 15:15 -11.48527 -54.97818 34000 ft 497 kts 330°
2026-05-04 15:15 -11.42490 -55.01245 33997 ft 497 kts 331°
2026-05-04 15:16 -11.33407 -55.06399 34001 ft 499 kts 331°
2026-05-04 15:17 -11.24350 -55.11534 33998 ft 499 kts 331°
2026-05-04 15:17 -11.15217 -55.16710 33995 ft 499 kts 331°
2026-05-04 15:18 -11.09151 -55.20145 33990 ft 499 kts 331°
2026-05-04 15:19 -11.00087 -55.25271 33999 ft 500 kts 331°
2026-05-04 15:19 -10.90948 -55.30432 33995 ft 501 kts 331°
2026-05-04 15:20 -10.84853 -55.33873 33984 ft 501 kts 331°
2026-05-04 15:20 -10.78761 -55.37311 33987 ft 501 kts 331°
2026-05-04 15:21 -10.72676 -55.40744 33995 ft 500 kts 331°
2026-05-04 15:22 -10.63549 -55.45890 33993 ft 500 kts 331°
2026-05-04 15:22 -10.54428 -55.51029 33993 ft 500 kts 331°
2026-05-04 15:23 -10.48344 -55.54455 33986 ft 499 kts 331°
2026-05-04 15:23 -10.42270 -55.57874 33987 ft 499 kts 331°
2026-05-04 15:24 -10.30125 -55.64705 33987 ft 499 kts 331°
2026-05-04 15:25 -10.24052 -55.68119 33994 ft 499 kts 331°
2026-05-04 15:26 -10.14941 -55.73237 33990 ft 499 kts 331°
2026-05-04 15:26 -10.05829 -55.78353 33990 ft 499 kts 331°
2026-05-04 15:27 -9.96717 -55.83465 34004 ft 499 kts 331°
2026-05-04 15:28 -9.87605 -55.88575 34019 ft 499 kts 331°
2026-05-04 15:29 -9.78498 -55.93679 33989 ft 499 kts 331°
2026-05-04 15:30 -9.57202 -56.05443 33994 ft 499 kts 332°
2026-05-04 15:31 -9.48020 -56.10430 33991 ft 499 kts 332°
2026-05-04 15:32 -9.32740 -56.18749 33992 ft 498 kts 331°
2026-05-04 15:34 -9.17488 -56.27045 33989 ft 497 kts 331°
2026-05-04 15:34 -9.08345 -56.32013 33993 ft 497 kts 331°
2026-05-04 15:35 -8.99222 -56.36969 33987 ft 496 kts 331°
2026-05-04 15:36 -8.90111 -56.41914 33984 ft 495 kts 331°
2026-05-04 15:36 -8.84042 -56.45207 33985 ft 495 kts 331°
2026-05-04 15:37 -8.77982 -56.48494 33995 ft 494 kts 331°
2026-05-04 15:37 -8.71923 -56.51779 33995 ft 494 kts 330°
2026-05-04 15:38 -8.65868 -56.55061 33996 ft 494 kts 331°
2026-05-04 15:38 -8.59810 -56.58343 34001 ft 494 kts 331°
2026-05-04 15:39 -8.53751 -56.61624 34002 ft 494 kts 330°
2026-05-04 15:40 -8.44649 -56.66551 34005 ft 495 kts 331°
2026-05-04 15:40 -8.38565 -56.69843 34002 ft 496 kts 330°
2026-05-04 15:41 -8.32478 -56.73136 34006 ft 497 kts 330°
2026-05-04 15:41 -8.26376 -56.76436 34003 ft 497 kts 330°
2026-05-04 15:42 -8.20279 -56.79731 34005 ft 498 kts 330°
2026-05-04 15:42 -8.15200 -56.82477 34008 ft 498 kts 330°
2026-05-04 15:43 -8.08094 -56.86316 34002 ft 498 kts 330°
2026-05-04 15:43 -8.02973 -56.89079 34002 ft 498 kts 330°
2026-05-04 15:44 -7.96860 -56.92376 34009 ft 498 kts 330°
2026-05-04 15:44 -7.90755 -56.95670 33999 ft 498 kts 330°
2026-05-04 15:45 -7.84699 -56.98936 34019 ft 498 kts 330°
2026-05-04 15:45 -7.78579 -57.02237 34000 ft 499 kts 331°
2026-05-04 15:46 -7.72460 -57.05535 34005 ft 498 kts 331°
2026-05-04 15:46 -7.66355 -57.08824 34005 ft 497 kts 331°
2026-05-04 15:47 -7.60260 -57.12108 34013 ft 496 kts 331°
2026-05-04 15:47 -7.54170 -57.15386 34005 ft 496 kts 331°
2026-05-04 15:48 -7.48088 -57.18661 34013 ft 496 kts 330°
2026-05-04 15:48 -7.38960 -57.23573 34009 ft 496 kts 331°
2026-05-04 15:49 -7.32871 -57.26848 34000 ft 496 kts 331°
2026-05-04 15:49 -7.26783 -57.30122 34015 ft 496 kts 331°
2026-05-04 15:50 -7.20691 -57.33397 34007 ft 497 kts 330°
2026-05-04 15:50 -7.14589 -57.36675 34008 ft 497 kts 331°
2026-05-04 15:51 -7.08496 -57.39949 34009 ft 496 kts 331°
2026-05-04 15:51 -7.02404 -57.43221 34004 ft 496 kts 332°
2026-05-04 15:52 -6.96320 -57.46488 34008 ft 495 kts 332°
2026-05-04 15:52 -6.90284 -57.49727 34005 ft 494 kts 332°
2026-05-04 15:53 -6.84193 -57.52996 34009 ft 493 kts 332°
2026-05-04 15:53 -6.78174 -57.56225 34009 ft 493 kts 332°
2026-05-04 15:54 -6.72120 -57.59471 34006 ft 493 kts 332°
2026-05-04 15:54 -6.66072 -57.62714 34010 ft 493 kts 332°
2026-05-04 15:55 -6.60011 -57.65963 34006 ft 494 kts 331°
2026-05-04 15:55 -6.53944 -57.69213 34008 ft 495 kts 331°
2026-05-04 15:56 -6.47866 -57.72469 34016 ft 496 kts 332°
2026-05-04 15:56 -6.41773 -57.75733 34006 ft 496 kts 332°
2026-05-04 15:57 -6.35683 -57.78994 34007 ft 495 kts 332°
2026-05-04 15:57 -6.29610 -57.82244 34004 ft 494 kts 332°
2026-05-04 15:58 -6.23549 -57.85487 34004 ft 493 kts 332°
2026-05-04 15:58 -6.17502 -57.88722 34008 ft 492 kts 332°
2026-05-04 15:59 -6.11459 -57.91954 34004 ft 492 kts 333°
2026-05-04 15:59 -6.05426 -57.95180 34007 ft 491 kts 333°
2026-05-04 16:00 -5.99407 -57.98397 34010 ft 490 kts 333°
2026-05-04 16:00 -5.93388 -58.01614 34013 ft 490 kts 333°
2026-05-04 16:01 -5.87371 -58.04828 34007 ft 490 kts 333°
2026-05-04 16:01 -5.81352 -58.08044 34013 ft 490 kts 333°
2026-05-04 16:02 -5.75334 -58.11258 34016 ft 490 kts 333°
2026-05-04 16:03 -5.66304 -58.16079 34012 ft 490 kts 333°
2026-05-04 16:03 -5.60331 -58.19266 34007 ft 489 kts 333°
2026-05-04 16:04 -5.54285 -58.22493 34015 ft 488 kts 333°
2026-05-04 16:04 -5.45329 -58.27270 34011 ft 488 kts 333°
2026-05-04 16:05 -5.39329 -58.30470 34012 ft 489 kts 334°
2026-05-04 16:06 -5.30303 -58.35281 34024 ft 490 kts 333°
2026-05-04 16:07 -5.18219 -58.41720 34015 ft 492 kts 333°
2026-05-04 16:08 -5.06029 -58.48214 34026 ft 500 kts 333°
2026-05-04 16:09 -4.90630 -58.56414 34004 ft 501 kts 333°
2026-05-04 16:10 -4.78332 -58.62959 33994 ft 500 kts 333°
2026-05-04 16:11 -4.66040 -58.69499 34000 ft 501 kts 333°
2026-05-04 16:12 -4.47482 -58.79294 33996 ft 506 kts 334°
2026-05-04 16:13 -4.34939 -58.85808 33999 ft 510 kts 333°
2026-05-04 16:14 -4.22351 -58.92363 33992 ft 509 kts 334°
2026-05-04 16:16 -4.06733 -59.00492 34001 ft 506 kts 334°
2026-05-04 16:17 -3.91114 -59.08613 33999 ft 506 kts 334°
2026-05-04 16:18 -3.78596 -59.15120 33998 ft 507 kts 334°
2026-05-04 16:19 -3.62916 -59.23270 33991 ft 508 kts 334°
2026-05-04 16:20 -3.47220 -59.31425 33992 ft 508 kts 334°
2026-05-04 16:22 -3.31558 -59.39529 33987 ft 505 kts 334°
2026-05-04 16:23 -3.12940 -59.49121 33981 ft 498 kts 333°
2026-05-04 16:25 -2.94664 -59.58825 33984 ft 497 kts 333°
2026-05-04 16:26 -2.73213 -59.70211 33982 ft 500 kts 333°
2026-05-04 16:28 -2.57832 -59.78386 33982 ft 501 kts 333°
2026-05-04 16:29 -2.36315 -59.89817 33981 ft 500 kts 333°
2026-05-04 16:31 -2.22351 -59.98034 33993 ft 503 kts 321°
2026-05-04 16:32 -2.07086 -60.12610 33983 ft 507 kts 317°
2026-05-04 16:33 -1.96866 -60.22350 33978 ft 508 kts 316°
2026-05-04 16:34 -1.89207 -60.29669 33978 ft 508 kts 316°
2026-05-04 16:35 -1.73881 -60.44311 33975 ft 508 kts 317°
2026-05-04 16:36 -1.66221 -60.51626 33972 ft 507 kts 317°
2026-05-04 16:37 -1.58586 -60.58917 33964 ft 505 kts 316°
2026-05-04 16:38 -1.48478 -60.68570 33966 ft 501 kts 316°
2026-05-04 16:39 -1.35931 -60.80551 33963 ft 500 kts 316°
2026-05-04 16:40 -1.26040 -60.90366 33966 ft 502 kts 315°
2026-05-04 16:41 -1.13683 -61.02689 33962 ft 503 kts 315°
2026-05-04 16:43 -1.01291 -61.15010 33962 ft 502 kts 315°
2026-05-04 16:43 -0.93863 -61.22396 33959 ft 502 kts 316°
2026-05-04 16:45 -0.79026 -61.37147 33967 ft 501 kts 316°
2026-05-04 16:46 -0.66693 -61.49408 33972 ft 500 kts 316°
2026-05-04 16:47 -0.56863 -61.59179 33964 ft 500 kts 316°
2026-05-04 16:48 -0.47013 -61.68971 33966 ft 500 kts 316°
2026-05-04 16:49 -0.37154 -61.78770 33969 ft 500 kts 316°
2026-05-04 16:50 -0.27280 -61.88585 33969 ft 500 kts 316°
2026-05-04 16:51 -0.19878 -61.95942 33964 ft 500 kts 316°
2026-05-04 16:52 -0.10005 -62.05755 33963 ft 500 kts 316°
2026-05-04 16:53 -0.02604 -62.13111 33969 ft 500 kts 316°
2026-05-04 16:54 0.07247 -62.22902 33970 ft 501 kts 316°
2026-05-04 16:55 0.22076 -62.37641 33971 ft 502 kts 316°
2026-05-04 16:56 0.34454 -62.49944 33984 ft 502 kts 316°
2026-05-04 16:57 0.41897 -62.57342 33958 ft 503 kts 316°
2026-05-04 16:58 0.51818 -62.67204 33968 ft 503 kts 316°
2026-05-04 17:00 0.66696 -62.81994 33975 ft 503 kts 316°
2026-05-04 17:01 0.79047 -62.94272 33978 ft 499 kts 316°
2026-05-04 17:02 0.88859 -63.04028 33983 ft 496 kts 316°
2026-05-04 17:03 0.96194 -63.11322 33985 ft 496 kts 316°
2026-05-04 17:03 1.03499 -63.18586 33985 ft 497 kts 316°
2026-05-04 17:04 1.13340 -63.28375 33990 ft 501 kts 316°
2026-05-04 17:05 1.23519 -63.37861 33987 ft 500 kts 324°
2026-05-04 17:06 1.31888 -63.44088 33985 ft 500 kts 324°
2026-05-04 17:07 1.39298 -63.49645 33981 ft 500 kts 324°
2026-05-04 17:07 1.45783 -63.54549 33977 ft 500 kts 323°
2026-05-04 17:08 1.54092 -63.60835 33971 ft 499 kts 324°
2026-05-04 17:09 1.59616 -63.65012 33972 ft 498 kts 324°
2026-05-04 17:09 1.65145 -63.69192 33975 ft 498 kts 324°
2026-05-04 17:10 1.78928 -63.79614 33977 ft 499 kts 323°
2026-05-04 17:11 1.84473 -63.83808 33980 ft 500 kts 323°
2026-05-04 17:12 1.92806 -63.90113 33976 ft 501 kts 323°
2026-05-04 17:13 2.07052 -64.00171 33970 ft 501 kts 327°
2026-05-04 17:14 2.18768 -64.07808 33983 ft 502 kts 327°
2026-05-04 17:15 2.27517 -64.13567 33966 ft 501 kts 326°
2026-05-04 17:16 2.39136 -64.21225 33968 ft 499 kts 327°
2026-05-04 17:17 2.49752 -64.28219 33983 ft 499 kts 326°
2026-05-04 17:18 2.61384 -64.35885 33985 ft 502 kts 326°
2026-05-04 17:19 2.73058 -64.43580 33996 ft 503 kts 327°
2026-05-04 17:20 2.84755 -64.51290 33966 ft 503 kts 326°
2026-05-04 17:20 2.93468 -64.57036 33969 ft 502 kts 326°
2026-05-04 17:21 3.05131 -64.64729 33975 ft 502 kts 326°
2026-05-04 17:22 3.10962 -64.68575 33973 ft 502 kts 326°
2026-05-04 17:23 3.22649 -64.76287 33972 ft 503 kts 326°
2026-05-04 17:24 3.31414 -64.82072 33974 ft 503 kts 326°
2026-05-04 17:25 3.43101 -64.89787 33969 ft 503 kts 326°
2026-05-04 17:26 3.54780 -64.97499 33987 ft 503 kts 326°
2026-05-04 17:27 3.69411 -65.07164 33972 ft 504 kts 326°
2026-05-04 17:28 3.81116 -65.14900 33988 ft 504 kts 326°
2026-05-04 17:29 3.98594 -65.26454 33998 ft 500 kts 326°
2026-05-04 17:31 4.13076 -65.36033 34007 ft 499 kts 326°
2026-05-04 17:32 4.27575 -65.45627 34004 ft 500 kts 326°
2026-05-04 17:33 4.39200 -65.53322 33995 ft 501 kts 326°
2026-05-04 17:34 4.50790 -65.60998 33984 ft 501 kts 326°
2026-05-04 17:35 4.65396 -65.70675 33959 ft 504 kts 326°
2026-05-04 17:36 4.71255 -65.74558 33958 ft 504 kts 326°
2026-05-04 17:36 4.77100 -65.78433 33949 ft 504 kts 326°
2026-05-04 17:37 4.82953 -65.82313 33940 ft 504 kts 326°
2026-05-04 17:37 4.88797 -65.86188 33942 ft 503 kts 326°
2026-05-04 17:38 4.94628 -65.90056 33935 ft 503 kts 326°
2026-05-04 17:38 5.00460 -65.93925 33937 ft 501 kts 326°
2026-05-04 17:39 5.09169 -65.99705 33935 ft 500 kts 326°
2026-05-04 17:39 5.14966 -66.03553 33937 ft 499 kts 326°
2026-05-04 17:40 5.20748 -66.07392 33937 ft 498 kts 326°
2026-05-04 17:40 5.26533 -66.11234 33936 ft 498 kts 326°
2026-05-04 17:41 5.32274 -66.15048 33947 ft 498 kts 326°
2026-05-04 17:41 5.38100 -66.18918 33942 ft 499 kts 326°
2026-05-04 17:42 5.43842 -66.22735 33957 ft 499 kts 326°
2026-05-04 17:42 5.49627 -66.26580 33959 ft 499 kts 325°
2026-05-04 17:43 5.55423 -66.30434 33968 ft 500 kts 326°
2026-05-04 17:43 5.61221 -66.34290 33978 ft 500 kts 326°
2026-05-04 17:44 5.67035 -66.38157 33978 ft 500 kts 326°
2026-05-04 17:44 5.72837 -66.42017 33979 ft 500 kts 326°
2026-05-04 17:45 5.78638 -66.45878 33970 ft 501 kts 326°
2026-05-04 17:45 5.84442 -66.49743 33973 ft 500 kts 326°
2026-05-04 17:46 5.90243 -66.53605 33967 ft 500 kts 325°
2026-05-04 17:46 5.96046 -66.57470 33970 ft 499 kts 325°
2026-05-04 17:47 6.01835 -66.61327 33956 ft 499 kts 325°
2026-05-04 17:47 6.07626 -66.65186 33946 ft 499 kts 325°
2026-05-04 17:48 6.13402 -66.69036 33952 ft 499 kts 325°
2026-05-04 17:48 6.19187 -66.72894 33944 ft 499 kts 325°
2026-05-04 17:49 6.24970 -66.76750 33935 ft 499 kts 325°
2026-05-04 17:49 6.30750 -66.80606 33931 ft 498 kts 325°
2026-05-04 17:50 6.36528 -66.84461 33927 ft 498 kts 325°
2026-05-04 17:50 6.42292 -66.88310 33927 ft 497 kts 325°
2026-05-04 17:51 6.48053 -66.92157 33919 ft 497 kts 325°
2026-05-04 17:51 6.53796 -66.95993 33919 ft 496 kts 325°
2026-05-04 17:52 6.59519 -66.99812 33918 ft 496 kts 325°
2026-05-04 17:52 6.65299 -67.03665 33918 ft 496 kts 325°
2026-05-04 17:53 6.71055 -67.07503 33916 ft 496 kts 325°
2026-05-04 17:53 6.76778 -67.11323 33913 ft 496 kts 325°
2026-05-04 17:54 6.82534 -67.15166 33916 ft 497 kts 325°
2026-05-04 17:54 6.88293 -67.19012 33916 ft 497 kts 325°
2026-05-04 17:55 6.94052 -67.22861 33917 ft 497 kts 325°
2026-05-04 17:55 6.99806 -67.26702 33915 ft 496 kts 326°
2026-05-04 17:56 7.05556 -67.30525 33913 ft 495 kts 325°
2026-05-04 17:56 7.11285 -67.34334 33914 ft 493 kts 325°
2026-05-04 17:57 7.17000 -67.38138 33913 ft 492 kts 325°
2026-05-04 17:57 7.22709 -67.41941 33926 ft 492 kts 325°
2026-05-04 17:58 7.28421 -67.45747 33915 ft 492 kts 325°
2026-05-04 17:58 7.34128 -67.49553 33919 ft 492 kts 324°
2026-05-04 17:59 7.39825 -67.53375 33924 ft 492 kts 324°
2026-05-04 18:00 7.48361 -67.59112 33917 ft 492 kts 324°
2026-05-04 18:00 7.54061 -67.62942 33922 ft 493 kts 324°
2026-05-04 18:01 7.59767 -67.66776 33918 ft 493 kts 324°
2026-05-04 18:01 7.65484 -67.70619 33920 ft 494 kts 324°
2026-05-04 18:02 7.74017 -67.76357 33923 ft 494 kts 324°
2026-05-04 18:02 7.79732 -67.80202 33917 ft 494 kts 324°
2026-05-04 18:03 7.85444 -67.84047 33917 ft 493 kts 324°
2026-05-04 18:03 7.91149 -67.87888 33918 ft 493 kts 324°
2026-05-04 18:04 7.95889 -67.91081 33920 ft 493 kts 324°
2026-05-04 18:05 8.04442 -67.96842 33921 ft 493 kts 324°
2026-05-04 18:05 8.10138 -68.00673 33920 ft 492 kts 324°
2026-05-04 18:06 8.18658 -68.06405 33914 ft 490 kts 324°
2026-05-04 18:06 8.24319 -68.10219 33917 ft 488 kts 324°
2026-05-04 18:07 8.29965 -68.14024 33917 ft 487 kts 324°
2026-05-04 18:07 8.35600 -68.17822 33918 ft 487 kts 324°
2026-05-04 18:08 8.41237 -68.21623 33916 ft 487 kts 324°
2026-05-04 18:08 8.46875 -68.25426 33922 ft 487 kts 324°
2026-05-04 18:09 8.58151 -68.33037 33924 ft 487 kts 324°
2026-05-04 18:10 8.63785 -68.36841 33922 ft 487 kts 324°
2026-05-04 18:10 8.69426 -68.40651 33924 ft 487 kts 324°
2026-05-04 18:11 8.75025 -68.44435 33920 ft 487 kts 324°
2026-05-04 18:11 8.80659 -68.48244 33926 ft 487 kts 324°
2026-05-04 18:12 8.86291 -68.52053 33934 ft 486 kts 324°
2026-05-04 18:12 8.91910 -68.55855 33930 ft 485 kts 324°
2026-05-04 18:13 8.97510 -68.59645 33929 ft 483 kts 325°
2026-05-04 18:14 9.05864 -68.65302 33929 ft 481 kts 324°
2026-05-04 18:14 9.11416 -68.69066 33928 ft 480 kts 324°
2026-05-04 18:15 9.22493 -68.76589 33946 ft 479 kts 325°
2026-05-04 18:16 9.28022 -68.80345 33935 ft 478 kts 325°
2026-05-04 18:16 9.33536 -68.84093 33938 ft 477 kts 325°
2026-05-04 18:17 9.41801 -68.89715 33946 ft 477 kts 326°
2026-05-04 18:18 9.50080 -68.95349 33954 ft 479 kts 326°
2026-05-04 18:18 9.55574 -68.99090 33961 ft 478 kts 326°
2026-05-04 18:19 9.63831 -69.04714 33964 ft 476 kts 326°
2026-05-04 18:19 9.69314 -69.08446 33965 ft 474 kts 326°
2026-05-04 18:20 9.74784 -69.12165 33959 ft 473 kts 326°
2026-05-04 18:20 9.80236 -69.15876 33974 ft 472 kts 326°
2026-05-04 18:21 9.85683 -69.19587 33971 ft 472 kts 326°
2026-05-04 18:21 9.91124 -69.23294 33980 ft 470 kts 326°
2026-05-04 18:22 9.96540 -69.26986 33977 ft 469 kts 326°
2026-05-04 18:22 10.01910 -69.30649 33976 ft 467 kts 326°
2026-05-04 18:23 10.07297 -69.34322 33961 ft 466 kts 326°
2026-05-04 18:23 10.12682 -69.37978 33965 ft 466 kts 326°
2026-05-04 18:24 10.18064 -69.41634 33952 ft 465 kts 326°
2026-05-04 18:24 10.23445 -69.45293 33952 ft 466 kts 326°
2026-05-04 18:25 10.28840 -69.48965 33946 ft 467 kts 326°
2026-05-04 18:25 10.34236 -69.52643 33951 ft 468 kts 326°
2026-05-04 18:26 10.39639 -69.56341 33939 ft 468 kts 326°
2026-05-04 18:26 10.45043 -69.60043 33935 ft 469 kts 326°
2026-05-04 18:27 10.50459 -69.63753 33938 ft 468 kts 326°
2026-05-04 18:27 10.55862 -69.67455 33922 ft 469 kts 326°
2026-05-04 18:28 10.61268 -69.71161 33935 ft 467 kts 326°
2026-05-04 18:28 10.66663 -69.74840 33928 ft 467 kts 326°
2026-05-04 18:29 10.72056 -69.78529 33997 ft 469 kts 326°
2026-05-04 18:29 10.74760 -69.80390 34252 ft 470 kts 326°
2026-05-04 18:29 10.77456 -69.82247 34660 ft 466 kts 326°
2026-05-04 18:30 10.82795 -69.85928 35250 ft 465 kts 326°
2026-05-04 18:30 10.85466 -69.87769 35635 ft 463 kts 326°
2026-05-04 18:30 10.88138 -69.89610 35802 ft 465 kts 326°
2026-05-04 18:31 10.90825 -69.91462 35845 ft 468 kts 326°
2026-05-04 18:31 10.96206 -69.95172 35899 ft 465 kts 326°
2026-05-04 18:32 11.01552 -69.98860 35902 ft 463 kts 325°
2026-05-04 18:32 11.06872 -70.02530 35903 ft 461 kts 325°
2026-05-04 18:33 11.12186 -70.06185 35901 ft 461 kts 326°
2026-05-04 18:33 11.17518 -70.09851 35894 ft 462 kts 326°
2026-05-04 18:34 11.22855 -70.13524 35874 ft 464 kts 326°
2026-05-04 18:34 11.28207 -70.17210 35889 ft 465 kts 326°
2026-05-04 18:35 11.33559 -70.20898 35869 ft 466 kts 325°
2026-05-04 18:35 11.38928 -70.24599 35879 ft 466 kts 325°
2026-05-04 18:36 11.44288 -70.28296 35878 ft 464 kts 325°
2026-05-04 18:36 11.49628 -70.31982 35907 ft 463 kts 325°
2026-05-04 18:37 11.54950 -70.35657 35877 ft 462 kts 325°
2026-05-04 18:37 11.60221 -70.39298 35901 ft 461 kts 325°
2026-05-04 18:38 11.65508 -70.42992 35888 ft 460 kts 324°
2026-05-04 18:38 11.70790 -70.46690 35889 ft 461 kts 325°
2026-05-04 18:39 11.76107 -70.50361 35907 ft 462 kts 325°
2026-05-04 18:39 11.81439 -70.54043 35892 ft 464 kts 325°
2026-05-04 18:40 11.86804 -70.57755 35908 ft 467 kts 325°
2026-05-04 18:40 11.92196 -70.61492 35907 ft 470 kts 325°
2026-05-04 18:41 11.97612 -70.65248 35901 ft 471 kts 325°
2026-05-04 18:41 12.03046 -70.69018 35913 ft 472 kts 325°
2026-05-04 18:42 12.08476 -70.72786 35912 ft 472 kts 324°
2026-05-04 18:42 12.13893 -70.76547 35905 ft 470 kts 324°
2026-05-04 18:43 12.19287 -70.80295 35930 ft 467 kts 324°
2026-05-04 18:43 12.24655 -70.84025 35916 ft 465 kts 324°
2026-05-04 18:44 12.30002 -70.87735 35934 ft 464 kts 324°
2026-05-04 18:44 12.35338 -70.91441 35918 ft 464 kts 324°
2026-05-04 18:45 12.40656 -70.95137 35918 ft 466 kts 324°
2026-05-04 18:45 12.46019 -70.98868 35923 ft 467 kts 324°
2026-05-04 18:46 12.51416 -71.02609 35929 ft 469 kts 324°
2026-05-04 18:46 12.56889 -71.06266 35925 ft 470 kts 326°
2026-05-04 18:47 12.62389 -71.09907 35942 ft 471 kts 325°
2026-05-04 18:47 12.67876 -71.13559 35921 ft 471 kts 325°
2026-05-04 18:48 12.73361 -71.17222 35924 ft 470 kts 325°
2026-05-04 18:48 12.78834 -71.20883 35918 ft 469 kts 325°
2026-05-04 18:49 12.84302 -71.24541 35951 ft 469 kts 325°
2026-05-04 18:49 12.89752 -71.28188 35928 ft 468 kts 325°
2026-05-04 18:50 12.95205 -71.31840 35932 ft 467 kts 325°
2026-05-04 18:50 13.00646 -71.35486 35928 ft 467 kts 325°
2026-05-04 18:51 13.06085 -71.39133 35936 ft 467 kts 325°
2026-05-04 18:51 13.11527 -71.42783 35923 ft 468 kts 325°
2026-05-04 18:52 13.16975 -71.46431 35939 ft 468 kts 325°
2026-05-04 18:52 13.22430 -71.50083 35929 ft 468 kts 325°
2026-05-04 18:53 13.27843 -71.53709 35937 ft 468 kts 325°
2026-05-04 18:53 13.33289 -71.57361 35924 ft 468 kts 325°
2026-05-04 18:54 13.38746 -71.61022 35943 ft 468 kts 325°
2026-05-04 18:54 13.44199 -71.64684 35932 ft 469 kts 325°
2026-05-04 18:55 13.48784 -71.67763 35947 ft 470 kts 324°
2026-05-04 18:55 13.57002 -71.73287 35940 ft 471 kts 325°
2026-05-04 18:56 13.62446 -71.76948 35938 ft 471 kts 325°
2026-05-04 18:56 13.67932 -71.80640 35941 ft 471 kts 325°
2026-05-04 18:57 13.73405 -71.84326 35938 ft 470 kts 325°
2026-05-04 18:57 13.78870 -71.88009 35938 ft 470 kts 325°
2026-05-04 18:58 13.84332 -71.91691 35936 ft 470 kts 325°
2026-05-04 18:58 13.89803 -71.95380 35942 ft 470 kts 324°
2026-05-04 18:59 13.95280 -71.99063 35939 ft 471 kts 325°
2026-05-04 18:59 14.00769 -72.02755 35950 ft 471 kts 324°
2026-05-04 19:00 14.06264 -72.06455 35947 ft 472 kts 325°
2026-05-04 19:00 14.11762 -72.10160 35954 ft 472 kts 324°
2026-05-04 19:01 14.17266 -72.13872 35937 ft 473 kts 324°
2026-05-04 19:01 14.22770 -72.17586 35947 ft 473 kts 324°
2026-05-04 19:02 14.28274 -72.21303 35943 ft 473 kts 324°
2026-05-04 19:02 14.33770 -72.25016 35942 ft 472 kts 324°
2026-05-04 19:03 14.39250 -72.28747 35946 ft 472 kts 324°
2026-05-04 19:03 14.44719 -72.32484 35947 ft 471 kts 324°
2026-05-04 19:04 14.50155 -72.36200 35945 ft 471 kts 324°
2026-05-04 19:04 14.55621 -72.39936 35947 ft 471 kts 324°
2026-05-04 19:05 14.61094 -72.43678 35958 ft 472 kts 324°
2026-05-04 19:05 14.66564 -72.47414 35953 ft 472 kts 324°
2026-05-04 19:06 14.72040 -72.51149 35953 ft 472 kts 324°
2026-05-04 19:06 14.77517 -72.54888 35953 ft 472 kts 324°
2026-05-04 19:07 14.82987 -72.58627 35954 ft 471 kts 324°
2026-05-04 19:07 14.88461 -72.62371 35948 ft 472 kts 324°
2026-05-04 19:08 14.93929 -72.66113 35960 ft 471 kts 324°
2026-05-04 19:08 14.99406 -72.69864 35957 ft 472 kts 324°
2026-05-04 19:09 15.04880 -72.73615 35959 ft 472 kts 324°
2026-05-04 19:09 15.10368 -72.77378 35954 ft 473 kts 324°
2026-05-04 19:10 15.15815 -72.81115 35965 ft 473 kts 324°
2026-05-04 19:10 15.21300 -72.84881 35959 ft 473 kts 324°
2026-05-04 19:11 15.26791 -72.88654 35964 ft 473 kts 324°
2026-05-04 19:11 15.32279 -72.92427 35967 ft 473 kts 324°
2026-05-04 19:12 15.40506 -72.98089 35964 ft 473 kts 324°
2026-05-04 19:13 15.45988 -73.01870 35965 ft 473 kts 324°
2026-05-04 19:13 15.51468 -73.05653 35964 ft 473 kts 324°
2026-05-04 19:14 15.56957 -73.09440 35967 ft 473 kts 324°
2026-05-04 19:14 15.62446 -73.13216 35968 ft 473 kts 324°
2026-05-04 19:15 15.67934 -73.16989 35967 ft 473 kts 324°
2026-05-04 19:15 15.73419 -73.20767 35970 ft 473 kts 324°
2026-05-04 19:16 15.78908 -73.24550 35974 ft 473 kts 324°
2026-05-04 19:16 15.84394 -73.28335 35976 ft 473 kts 324°
2026-05-04 19:17 15.89881 -73.32122 35972 ft 474 kts 324°
2026-05-04 19:17 15.95369 -73.35913 35978 ft 474 kts 324°
2026-05-04 19:18 16.00860 -73.39708 35977 ft 474 kts 324°
2026-05-04 19:18 16.06348 -73.43504 35983 ft 474 kts 323°
2026-05-04 19:19 16.11842 -73.47307 35979 ft 475 kts 323°
2026-05-04 19:19 16.17342 -73.51116 35977 ft 475 kts 323°
2026-05-04 19:20 16.22799 -73.54898 35980 ft 475 kts 323°
2026-05-04 19:20 16.28295 -73.58710 35980 ft 475 kts 323°
2026-05-04 19:21 16.33787 -73.62523 35981 ft 475 kts 323°
2026-05-04 19:21 16.39292 -73.66336 35980 ft 475 kts 324°
2026-05-04 19:22 16.44801 -73.70125 35984 ft 475 kts 323°
2026-05-04 19:22 16.50317 -73.73920 35984 ft 475 kts 323°
2026-05-04 19:23 16.55819 -73.77711 35987 ft 474 kts 323°
2026-05-04 19:23 16.61321 -73.81508 35986 ft 474 kts 323°
2026-05-04 19:24 16.66823 -73.85308 35988 ft 474 kts 323°
2026-05-04 19:24 16.72321 -73.89108 35986 ft 474 kts 323°
2026-05-04 19:25 16.77825 -73.92914 35997 ft 474 kts 323°
2026-05-04 19:25 16.83319 -73.96716 35987 ft 474 kts 323°
2026-05-04 19:26 16.88803 -74.00514 35984 ft 473 kts 323°
2026-05-04 19:26 16.94281 -74.04310 35985 ft 472 kts 323°
2026-05-04 19:27 16.99755 -74.08106 35990 ft 472 kts 323°
2026-05-04 19:27 17.05220 -74.11899 35992 ft 472 kts 323°
2026-05-04 19:28 17.10686 -74.15696 35988 ft 472 kts 323°
2026-05-04 19:28 17.16153 -74.19495 35999 ft 472 kts 323°
2026-05-04 19:29 17.21614 -74.23293 35995 ft 471 kts 323°
2026-05-04 19:29 17.27068 -74.27089 35994 ft 471 kts 323°
2026-05-04 19:30 17.32521 -74.30887 35995 ft 470 kts 323°
2026-05-04 19:30 17.37931 -74.34658 35997 ft 470 kts 323°
2026-05-04 19:31 17.43375 -74.38455 35997 ft 470 kts 323°
2026-05-04 19:31 17.48821 -74.42257 35997 ft 470 kts 323°
2026-05-04 19:32 17.54264 -74.46060 35999 ft 470 kts 323°
2026-05-04 19:32 17.59710 -74.49867 35997 ft 471 kts 323°
2026-05-04 19:33 17.65157 -74.53677 35995 ft 471 kts 323°
2026-05-04 19:33 17.70607 -74.57493 35994 ft 471 kts 323°
2026-05-04 19:34 17.76055 -74.61310 35993 ft 471 kts 323°
2026-05-04 19:34 17.81507 -74.65132 36009 ft 471 kts 322°
2026-05-04 19:35 17.86952 -74.68952 35999 ft 471 kts 322°
2026-05-04 19:35 17.92391 -74.72772 35995 ft 470 kts 322°
2026-05-04 19:36 17.97820 -74.76586 35996 ft 469 kts 322°
2026-05-04 19:36 18.03236 -74.80395 35997 ft 468 kts 322°
2026-05-04 19:37 18.08645 -74.84202 35996 ft 468 kts 322°
2026-05-04 19:37 18.14049 -74.88008 35997 ft 467 kts 322°
2026-05-04 19:38 18.19415 -74.91790 36008 ft 467 kts 322°
2026-05-04 19:38 18.24810 -74.95596 35997 ft 467 kts 322°
2026-05-04 19:39 18.30210 -74.99408 36000 ft 467 kts 322°
2026-05-04 19:39 18.35604 -75.03219 35996 ft 467 kts 322°
2026-05-04 19:40 18.40995 -75.07031 36003 ft 467 kts 322°
2026-05-04 19:40 18.46379 -75.10841 35998 ft 466 kts 322°
2026-05-04 19:41 18.51766 -75.14656 35999 ft 466 kts 322°
2026-05-04 19:41 18.57143 -75.18474 36000 ft 465 kts 321°
2026-05-04 19:42 18.62368 -75.22472 35994 ft 463 kts 319°
2026-05-04 19:42 18.66650 -75.25860 35997 ft 462 kts 319°
2026-05-04 19:43 18.71800 -75.29916 35999 ft 462 kts 319°
2026-05-04 19:43 18.76965 -75.33952 35999 ft 462 kts 319°
2026-05-04 19:44 18.82131 -75.37978 35998 ft 461 kts 319°
2026-05-04 19:44 18.87296 -75.42005 35997 ft 462 kts 319°
2026-05-04 19:45 18.92458 -75.46035 36003 ft 462 kts 319°
2026-05-04 19:45 18.97622 -75.50070 35998 ft 461 kts 319°
2026-05-04 19:46 19.02781 -75.54103 35998 ft 461 kts 319°
2026-05-04 19:46 19.07931 -75.58133 36000 ft 461 kts 319°
2026-05-04 19:47 19.13079 -75.62166 36002 ft 460 kts 319°
2026-05-04 19:47 19.18224 -75.66199 36001 ft 460 kts 319°
2026-05-04 19:48 19.23369 -75.70235 36017 ft 460 kts 319°
2026-05-04 19:48 19.28518 -75.74277 36010 ft 461 kts 319°
2026-05-04 19:49 19.33662 -75.78319 36000 ft 461 kts 319°
2026-05-04 19:49 19.38774 -75.82339 36004 ft 461 kts 319°
2026-05-04 19:50 19.43919 -75.86388 36004 ft 461 kts 319°
2026-05-04 19:50 19.49060 -75.90437 36001 ft 460 kts 319°
2026-05-04 19:51 19.54202 -75.94492 36001 ft 460 kts 319°
2026-05-04 19:51 19.59338 -75.98544 36014 ft 460 kts 319°
2026-05-04 19:52 19.64471 -76.02594 35990 ft 460 kts 319°
2026-05-04 19:52 19.69599 -76.06641 35999 ft 459 kts 319°
2026-05-04 19:53 19.74723 -76.10689 35995 ft 459 kts 319°
2026-05-04 19:53 19.79841 -76.14738 36020 ft 458 kts 318°
2026-05-04 19:54 19.84952 -76.18784 36018 ft 458 kts 318°
2026-05-04 19:54 19.90053 -76.22825 36013 ft 458 kts 318°
2026-05-04 19:55 19.95154 -76.26870 36021 ft 458 kts 318°
2026-05-04 19:55 20.00258 -76.30921 36020 ft 458 kts 318°
2026-05-04 19:56 20.05331 -76.34951 36015 ft 458 kts 318°
2026-05-04 19:56 20.10467 -76.39032 36023 ft 458 kts 318°
2026-05-04 19:57 20.15563 -76.43087 36022 ft 457 kts 318°
2026-05-04 19:57 20.20661 -76.47145 36018 ft 458 kts 318°
2026-05-04 19:58 20.25721 -76.51179 36012 ft 457 kts 318°
2026-05-04 19:58 20.30814 -76.55243 36021 ft 457 kts 317°
2026-05-04 19:59 20.35903 -76.59306 36002 ft 457 kts 317°
2026-05-04 19:59 20.40983 -76.63364 36000 ft 456 kts 317°
2026-05-04 20:00 20.46058 -76.67413 35994 ft 456 kts 317°
2026-05-04 20:00 20.51134 -76.71460 35998 ft 455 kts 317°
2026-05-04 20:01 20.56202 -76.75507 35996 ft 455 kts 317°
2026-05-04 20:01 20.61267 -76.79555 35993 ft 455 kts 317°
2026-05-04 20:02 20.66330 -76.83606 36004 ft 455 kts 317°
2026-05-04 20:02 20.71388 -76.87656 36004 ft 454 kts 317°
2026-05-04 20:03 20.76433 -76.91700 35997 ft 453 kts 317°
2026-05-04 20:03 20.81470 -76.95740 36003 ft 452 kts 317°
2026-05-04 20:04 20.86495 -76.99776 36003 ft 451 kts 317°
2026-05-04 20:04 20.91508 -77.03803 36000 ft 451 kts 317°
2026-05-04 20:05 20.96529 -77.07831 36000 ft 451 kts 317°
2026-05-04 20:05 21.01552 -77.11858 36000 ft 451 kts 317°
2026-05-04 20:06 21.06572 -77.15888 35995 ft 451 kts 317°
2026-05-04 20:06 21.11556 -77.19893 36000 ft 451 kts 317°
2026-05-04 20:07 21.16583 -77.23938 35995 ft 452 kts 317°
2026-05-04 20:07 21.21607 -77.27984 35998 ft 452 kts 317°
2026-05-04 20:08 21.26627 -77.32030 35993 ft 452 kts 317°
2026-05-04 20:08 21.31652 -77.36083 36021 ft 452 kts 317°
2026-05-04 20:09 21.36678 -77.40141 36004 ft 452 kts 317°
2026-05-04 20:09 21.41700 -77.44205 35995 ft 452 kts 317°
2026-05-04 20:10 21.46709 -77.48282 35996 ft 451 kts 316°
2026-05-04 20:10 21.51704 -77.52354 35994 ft 451 kts 316°
2026-05-04 20:11 21.56697 -77.56427 35989 ft 450 kts 316°
2026-05-04 20:11 21.61683 -77.60497 35998 ft 450 kts 316°
2026-05-04 20:12 21.66630 -77.64538 36012 ft 450 kts 316°
2026-05-04 20:12 21.71605 -77.68605 35990 ft 449 kts 316°
2026-05-04 20:13 21.76573 -77.72671 35975 ft 448 kts 316°
2026-05-04 20:13 21.81531 -77.76733 35979 ft 447 kts 316°
2026-05-04 20:14 21.86483 -77.80794 35987 ft 447 kts 316°
2026-05-04 20:14 21.91423 -77.84850 35976 ft 446 kts 316°
2026-05-04 20:15 21.96353 -77.88918 35973 ft 446 kts 316°
2026-05-04 20:15 22.01276 -77.92992 36014 ft 446 kts 316°
2026-05-04 20:16 22.06206 -77.97073 35985 ft 447 kts 316°
2026-05-04 20:16 22.11131 -78.01152 35970 ft 446 kts 316°
2026-05-04 20:17 22.16051 -78.05230 35974 ft 446 kts 316°
2026-05-04 20:17 22.20958 -78.09302 35978 ft 445 kts 316°
2026-05-04 20:18 22.25829 -78.13348 35978 ft 445 kts 316°
2026-05-04 20:18 22.30733 -78.17424 35978 ft 444 kts 316°
2026-05-04 20:19 22.35629 -78.21499 36010 ft 445 kts 316°
2026-05-04 20:19 22.40543 -78.25592 35988 ft 447 kts 316°
2026-05-04 20:20 22.45472 -78.29702 35983 ft 448 kts 316°
2026-05-04 20:20 22.50419 -78.33829 35981 ft 450 kts 316°
2026-05-04 20:21 22.55388 -78.37962 35985 ft 451 kts 316°
2026-05-04 20:21 22.62874 -78.44160 35986 ft 452 kts 316°
2026-05-04 20:22 22.67866 -78.48304 35980 ft 452 kts 316°
2026-05-04 20:22 22.72845 -78.52442 35988 ft 451 kts 315°
2026-05-04 20:23 22.78346 -78.55867 35988 ft 464 kts 330°
2026-05-04 20:23 22.84606 -78.57873 35994 ft 476 kts 341°
2026-05-04 20:24 22.91156 -78.59062 35977 ft 477 kts 343°
2026-05-04 20:24 22.97703 -78.60210 35990 ft 476 kts 342°
2026-05-04 20:25 23.04187 -78.61399 36006 ft 475 kts 342°
2026-05-04 20:25 23.10705 -78.62627 35994 ft 475 kts 342°
2026-05-04 20:26 23.17218 -78.63861 35988 ft 475 kts 342°
2026-05-04 20:26 23.23742 -78.65096 35991 ft 475 kts 342°
2026-05-04 20:27 23.30220 -78.66321 35993 ft 476 kts 342°
2026-05-04 20:27 23.36793 -78.67566 36006 ft 476 kts 341°
2026-05-04 20:28 23.43321 -78.68803 35984 ft 476 kts 341°
2026-05-04 20:28 23.49814 -78.70035 35987 ft 476 kts 341°
2026-05-04 20:29 23.56332 -78.71273 35987 ft 475 kts 341°
2026-05-04 20:29 23.62844 -78.72511 36002 ft 475 kts 341°
2026-05-04 20:30 23.69358 -78.73751 36001 ft 476 kts 341°
2026-05-04 20:30 23.74778 -78.74784 35999 ft 476 kts 341°
2026-05-04 20:31 23.81297 -78.76027 35995 ft 476 kts 341°
2026-05-04 20:31 23.87819 -78.77271 35992 ft 476 kts 341°
2026-05-04 20:32 23.94339 -78.78517 35992 ft 476 kts 341°
2026-05-04 20:32 24.00775 -78.80007 35987 ft 463 kts 329°
2026-05-04 20:33 24.03525 -78.81648 36007 ft 446 kts 320°
2026-05-04 20:33 24.06141 -78.83468 35993 ft 447 kts 319°
2026-05-04 20:33 24.11426 -78.87105 35997 ft 450 kts 320°
2026-05-04 20:34 24.16784 -78.90693 35997 ft 453 kts 321°
2026-05-04 20:34 24.22180 -78.94264 35992 ft 454 kts 321°
2026-05-04 20:35 24.27598 -78.97848 35993 ft 455 kts 321°
2026-05-04 20:35 24.33013 -79.01437 35993 ft 455 kts 321°
2026-05-04 20:36 24.38395 -79.05006 35979 ft 445 kts 321°
2026-05-04 20:36 24.41017 -79.06744 35856 ft 435 kts 320°
2026-05-04 20:36 24.43564 -79.08433 35821 ft 422 kts 320°
2026-05-04 20:37 24.46071 -79.10106 35373 ft 423 kts 320°
2026-05-04 20:37 24.48604 -79.11801 34799 ft 428 kts 321°
2026-05-04 20:37 24.51155 -79.13503 34156 ft 431 kts 321°
2026-05-04 20:37 24.53735 -79.15224 33295 ft 437 kts 321°
2026-05-04 20:38 24.56345 -79.16966 32505 ft 440 kts 322°
2026-05-04 20:38 24.58967 -79.18713 31803 ft 442 kts 322°
2026-05-04 20:38 24.61595 -79.20464 31165 ft 442 kts 322°
2026-05-04 20:38 24.64219 -79.22213 30535 ft 441 kts 322°
2026-05-04 20:39 24.66844 -79.23965 29854 ft 441 kts 322°
2026-05-04 20:39 24.69472 -79.25721 29029 ft 443 kts 323°
2026-05-04 20:39 24.72111 -79.27487 28128 ft 446 kts 323°
2026-05-04 20:39 24.74764 -79.29263 27383 ft 446 kts 323°
2026-05-04 20:40 24.77408 -79.31032 26720 ft 443 kts 323°
2026-05-04 20:40 24.80034 -79.32789 26123 ft 440 kts 323°
2026-05-04 20:40 24.82640 -79.34534 25576 ft 436 kts 323°
2026-05-04 20:40 24.85217 -79.36260 25101 ft 431 kts 323°
2026-05-04 20:41 24.87765 -79.37966 24658 ft 426 kts 323°
2026-05-04 20:41 24.90282 -79.39654 24219 ft 421 kts 323°
2026-05-04 20:41 24.92763 -79.41319 23852 ft 415 kts 323°
2026-05-04 20:41 24.95207 -79.42961 23447 ft 409 kts 323°
2026-05-04 20:42 24.97625 -79.44587 22937 ft 406 kts 323°
2026-05-04 20:42 25.00029 -79.46205 22433 ft 402 kts 323°
2026-05-04 20:42 25.02395 -79.47797 22104 ft 395 kts 323°
2026-05-04 20:42 25.04716 -79.49359 21836 ft 387 kts 323°
2026-05-04 20:43 25.06989 -79.50888 21619 ft 378 kts 323°
2026-05-04 20:43 25.09179 -79.52362 21350 ft 371 kts 323°
2026-05-04 20:43 25.11399 -79.53858 20953 ft 368 kts 322°
2026-05-04 20:43 25.13549 -79.55309 20505 ft 367 kts 322°
2026-05-04 20:44 25.15725 -79.56777 20060 ft 366 kts 322°
2026-05-04 20:44 25.17893 -79.58240 19663 ft 364 kts 322°
2026-05-04 20:44 25.20050 -79.59696 19277 ft 362 kts 322°
2026-05-04 20:44 25.22192 -79.61142 18895 ft 360 kts 322°
2026-05-04 20:45 25.24324 -79.62582 18513 ft 358 kts 322°
2026-05-04 20:45 25.26445 -79.64016 18116 ft 357 kts 322°
2026-05-04 20:45 25.28557 -79.65445 17718 ft 355 kts 322°
2026-05-04 20:45 25.30654 -79.66864 17311 ft 352 kts 322°
2026-05-04 20:46 25.32740 -79.68275 16931 ft 350 kts 322°
2026-05-04 20:46 25.34808 -79.69675 16552 ft 347 kts 322°
2026-05-04 20:46 25.36862 -79.71065 16181 ft 345 kts 322°
2026-05-04 20:46 25.38828 -79.72525 15736 ft 336 kts 312°
2026-05-04 20:47 25.40263 -79.74450 15555 ft 318 kts 299°
2026-05-04 20:47 25.41517 -79.76483 15267 ft 324 kts 300°
2026-05-04 20:47 25.42811 -79.78544 14944 ft 329 kts 300°
2026-05-04 20:47 25.44129 -79.80618 14608 ft 329 kts 301°
2026-05-04 20:48 25.45450 -79.82681 14272 ft 328 kts 301°
2026-05-04 20:48 25.46769 -79.84738 13929 ft 326 kts 301°
2026-05-04 20:48 25.48077 -79.86777 13550 ft 323 kts 301°
2026-05-04 20:48 25.49367 -79.88788 13191 ft 318 kts 301°
2026-05-04 20:49 25.50640 -79.90775 12851 ft 314 kts 301°
2026-05-04 20:49 25.51899 -79.92741 12520 ft 312 kts 301°
2026-05-04 20:49 25.53148 -79.94694 12205 ft 309 kts 301°
2026-05-04 20:49 25.54388 -79.96633 11872 ft 308 kts 301°
2026-05-04 20:50 25.55618 -79.98558 11576 ft 304 kts 301°
2026-05-04 20:50 25.56833 -80.00458 11244 ft 301 kts 302°
2026-05-04 20:50 25.58035 -80.02340 10938 ft 298 kts 302°
2026-05-04 20:50 25.59221 -80.04197 10689 ft 292 kts 302°
2026-05-04 20:51 25.60385 -80.06020 10404 ft 288 kts 302°
2026-05-04 20:51 25.61515 -80.07789 10243 ft 281 kts 302°
2026-05-04 20:51 25.62622 -80.09523 10117 ft 271 kts 302°
2026-05-04 20:51 25.63694 -80.11203 9976 ft 263 kts 302°
2026-05-04 20:52 25.64741 -80.12845 9726 ft 259 kts 302°
2026-05-04 20:52 25.65736 -80.14498 9347 ft 257 kts 296°
2026-05-04 20:52 25.66514 -80.16282 8906 ft 259 kts 292°
2026-05-04 20:52 25.67257 -80.18116 8490 ft 261 kts 292°
2026-05-04 20:53 25.68009 -80.19939 8207 ft 258 kts 293°
2026-05-04 20:53 25.68759 -80.21733 7958 ft 255 kts 293°
2026-05-04 20:53 25.69505 -80.23507 7701 ft 253 kts 293°
2026-05-04 20:53 25.70251 -80.25272 7452 ft 253 kts 293°
2026-05-04 20:54 25.70984 -80.27039 7191 ft 249 kts 289°
2026-05-04 20:54 25.71218 -80.28903 6940 ft 246 kts 266°
2026-05-04 20:54 25.71094 -80.30831 6729 ft 256 kts 267°
2026-05-04 20:54 25.71002 -80.32825 6461 ft 260 kts 267°
2026-05-04 20:55 25.70913 -80.34825 6174 ft 258 kts 268°
2026-05-04 20:55 25.70822 -80.36811 5846 ft 258 kts 268°
2026-05-04 20:55 25.70730 -80.38785 5565 ft 254 kts 268°
2026-05-04 20:55 25.70638 -80.40723 5378 ft 248 kts 268°
2026-05-04 20:56 25.70567 -80.42597 5239 ft 236 kts 275°
2026-05-04 20:56 25.71108 -80.44216 5033 ft 222 kts 313°
2026-05-04 20:56 25.72347 -80.45137 4839 ft 213 kts 335°
2026-05-04 20:56 25.73720 -80.45731 4532 ft 209 kts 343°
2026-05-04 20:57 25.75116 -80.46121 4128 ft 206 kts 350°
2026-05-04 20:57 25.76494 -80.46468 3695 ft 200 kts 351°
2026-05-04 20:57 25.77841 -80.46372 3129 ft 197 kts 28°
2026-05-04 20:57 25.78680 -80.45217 2617 ft 200 kts 76°
2026-05-04 20:58 25.78604 -80.43696 2254 ft 196 kts 94°
2026-05-04 20:58 25.78474 -80.42210 2028 ft 193 kts 89°
2026-05-04 20:58 25.78385 -80.40696 2009 ft 201 kts 91°
2026-05-04 20:58 25.78281 -80.39139 1666 ft 202 kts 87°
2026-05-04 20:59 25.78310 -80.37626 1250 ft 188 kts 84°
2026-05-04 20:59 25.78387 -80.36250 1015 ft 173 kts 82°
2026-05-04 20:59 25.78453 -80.34948 723 ft 163 kts 81°
2026-05-04 20:59 25.78511 -80.33787 509 ft 139 kts 86°
2026-05-04 21:00 25.78559 -80.32720 335 ft 138 kts 87°
2026-05-04 21:00 25.78598 -80.31668 168 ft 138 kts 84°
2026-05-04 21:00 25.78648 -80.30618 27 ft 130 kts 86°
2026-05-04 21:00 25.78684 -80.29755 27 ft 90 kts 88°
2026-05-04 21:01 25.78706 -80.29229 27 ft 46 kts 87°
2026-05-04 21:01 25.78718 -80.28967 21 ft 30 kts 87°
2026-05-04 21:01 25.78752 -80.28762 24 ft 25 kts 63°
2026-05-04 21:01 25.78840 -80.28660 21 ft 13 kts 39°
2026-05-04 21:02 25.78879 -80.28582 22 ft 11 kts 83°
2026-05-04 21:02 25.78882 -80.28494 24 ft 11 kts 88°
2026-05-04 21:02 25.78885 -80.28405 28 ft 11 kts 88°
2026-05-04 21:02 25.78889 -80.28316 25 ft 11 kts 87°
2026-05-04 21:03 25.78893 -80.28228 25 ft 11 kts 87°
2026-05-04 21:03 25.78901 -80.28140 29 ft 11 kts 84°
2026-05-04 21:03 25.78909 -80.28053 27 ft 11 kts 86°
2026-05-04 21:03 25.78888 -80.27969 27 ft 11 kts 115°
2026-05-04 21:04 25.78873 -80.27883 28 ft 12 kts 88°
2026-05-04 21:04 25.78878 -80.27785 23 ft 13 kts 86°
2026-05-04 21:04 25.78884 -80.27683 24 ft 13 kts 86°
2026-05-04 21:04 25.78895 -80.27582 27 ft 12 kts 78°
2026-05-04 21:05 25.78928 -80.27516 28 ft 10 kts 31°
2026-05-04 21:05 25.78998 -80.27506 25 ft 11 kts 359°
2026-05-04 21:05 25.79061 -80.27508 23 ft 1 kts 359°
2026-05-04 21:05 25.79072 -80.27508 24 ft 3 kts 359°
2026-05-04 21:06 25.79094 -80.27508 23 ft 3 kts 359°
2026-05-04 21:06 25.79113 -80.27493 22 ft 4 kts 60°
2026-05-04 21:06 25.79116 -80.27463 21 ft 4 kts 92°
2026-05-04 21:06 25.79108 -80.27428 21 ft 5 kts 107°
2026-05-04 21:07 25.79106 -80.27417 244 ft 2 kts 33°
2026-05-04 21:07 25.79110 -80.27421 24 ft 0 kts 41°